DW0465 Weather Reports


Display with metric or nautical units.
time (UTC)temp
F
wind
direction
speed
MPH
gust
MPH
rain 1hr
in
rain 24hr
in
rain mn
in
humidity
%
barometer
mb
20260906061531 53 208 0.0 1.0 0.00 0.00 0.00 60 1009.0
20260906060027 53 213 0.0 3.0 0.00 0.00 0.00 60 1009.0
20260906054524 54 204 0.0 0.0 0.00 0.00 0.00 58 1009.0
20260906053023 55 219 0.0 3.0 0.00 0.00 0.00 58 1008.9
20260906051522 55 221 0.0 0.0 0.00 0.00 0.00 59 1008.9
20260906050021 55 202 0.0 2.0 0.00 0.00 0.00 59 1008.9
20260906044521 55 208 0.0 0.0 0.00 0.00 0.00 59 1008.7
20260906043018 55 196 0.0 2.0 0.00 0.00 0.00 59 1008.6
20260906041517 57 198 0.0 4.0 0.00 0.00 0.00 56 1008.4
20260906040016 58 195 0.0 0.0 0.00 0.00 0.00 56 1008.4
20260906034524 59 94 0.0 0.0 0.00 0.00 0.00 56 1008.4
20260906033018 60 37 0.0 0.0 0.00 0.00 0.00 57 1008.3
20260906031513 61 37 0.0 0.0 0.00 0.00 0.00 53 1008.1
20260906030012 62 37 0.0 0.0 0.00 0.00 0.00 51 1008.0
20260906024511 63 37 0.0 0.0 0.00 0.00 0.00 52 1007.7
20260906023012 65 37 0.0 0.0 0.00 0.00 0.00 47 1007.6
20260906021516 66 37 0.0 0.0 0.00 0.00 0.00 45 1007.2
20260906020010 68 37 0.0 0.0 0.00 0.00 0.00 42 1006.9
20260906014519 69 26 0.0 1.0 0.00 0.00 0.00 39 1006.8
20260906013010 71 12 0.0 1.0 0.00 0.00 0.00 38 1006.7
20260906011509 72 11 0.0 1.0 0.00 0.00 0.00 37 1006.7
20260906010009 75 342 0.0 4.0 0.00 0.00 0.00 33 1006.5
20260906004507 76 5 0.0 0.0 0.00 0.00 0.00 30 1006.4
20260906003007 77 24 0.0 1.0 0.00 0.00 0.00 29 1006.2
20260906001505 77 63 0.0 0.0 0.00 0.00 0.00 29 1006.2
20260906000005 78 51 0.0 1.0 0.00 0.00 0.00 30 1006.1
20260905234504 78 44 0.0 7.0 0.00 0.00 0.00 29 1006.1
20260905233004 78 63 0.0 8.0 0.00 0.00 0.00 28 1006.0
20260905231503 77 24 0.0 1.0 0.00 0.00 0.00 28 1005.9
20260905230002 78 63 0.0 1.0 0.00 0.00 0.00 28 1005.9
20260905224506 77 26 0.0 2.0 0.00 0.00 0.00 30 1005.9
20260905223107 77 46 0.0 4.0 0.00 0.00 0.00 29 1006.0
20260905221601 76 21 0.0 3.0 0.00 0.00 0.00 29 1006.1
20260905214600 77 327 0.0 4.0 0.00 0.00 0.00 30 1006.1
20260905213058 78 28 0.0 2.0 0.00 0.00 0.00 29 1006.2
20260905211557 77 355 0.0 4.0 0.00 0.00 0.00 29 1006.4
20260905210056 77 5 0.0 6.0 0.00 0.00 0.00 30 1006.4
20260905204556 78 45 0.0 4.0 0.00 0.00 0.00 28 1006.5
20260905203054 78 121 0.0 6.0 0.00 0.00 0.00 26 1006.6
20260905201606 77 40 0.0 4.0 0.00 0.00 0.00 28 1006.4
20260905200053 77 46 0.0 4.0 0.00 0.00 0.00 30 1006.3
20260905194551 77 49 0.0 3.0 0.00 0.00 0.00 28 1006.4
20260905193049 78 31 0.0 3.0 0.00 0.00 0.00 27 1006.6
20260905191550 76 76 0.0 3.0 0.00 0.00 0.00 28 1006.7
20260905190059 76 75 0.0 4.0 0.00 0.00 0.00 28 1006.8
20260905184555 75 55 0.0 4.0 0.00 0.00 0.00 31 1006.9
20260905183040 74 50 0.0 5.0 0.00 0.00 0.00 30 1007.1
20260905181536 74 78 0.0 4.0 0.00 0.00 0.00 30 1007.2
20260905180033 73 360 0.0 3.0 0.00 0.00 0.00 31 1007.4
20260905174535 72 40 0.0 2.0 0.00 0.00 0.00 32 1007.6
20260905173035 72 18 0.0 9.0 0.00 0.00 0.00 32 1007.6
20260905171523 72 55 0.0 1.0 0.00 0.00 0.00 32 1007.6
20260905170018 71 18 0.0 1.0 0.00 0.00 0.00 34 1007.6
20260905164515 70 63 0.0 0.0 0.00 0.00 0.00 33 1007.7
20260905163009 69 348 0.0 0.0 0.00 0.00 0.00 35 1007.6
20260905161505 68 30 0.0 0.0 0.00 0.00 0.00 36 1007.5
20260905160101 67 32 0.0 0.0 0.00 0.00 0.00 41 1007.6
20260905154556 66 56 0.0 0.0 0.00 0.00 0.00 38 1007.7
20260905153054 65 318 0.0 0.0 0.00 0.00 0.00 38 1007.8
20260905151548 63 243 0.0 0.0 0.00 0.00 0.00 40 1007.9
20260905150043 62 243 0.0 0.0 0.00 0.00 0.00 42 1008.0
20260905144543 60 205 0.0 0.0 0.00 0.00 0.00 43 1008.1
20260905143035 58 208 0.0 0.0 0.00 0.00 0.00 47 1008.0
20260905141531 55 229 0.0 0.0 0.00 0.00 0.00 48 1007.8
20260905140026 52 219 0.0 0.0 0.00 0.00 0.00 55 1008.0
20260905134524 50 217 0.0 1.0 0.00 0.00 0.00 56 1008.0
20260905133021 49 198 0.0 0.0 0.00 0.00 0.00 56 1007.8
20260905131540 49 202 0.0 1.0 0.00 0.00 0.00 56 1007.6
20260905130019 49 213 0.0 0.0 0.00 0.00 0.00 58 1007.3
20260905124534 49 211 0.0 0.0 0.00 0.00 0.00 56 1007.2
20260905123013 49 210 0.0 2.0 0.00 0.00 0.00 55 1007.1
20260905121521 50 214 0.0 2.0 0.00 0.00 0.00 54 1007.0
20260905120010 51 208 0.0 0.0 0.00 0.00 0.00 52 1006.9
20260905114519 51 227 0.0 0.0 0.00 0.00 0.00 51 1006.8
20260905113007 51 209 0.0 1.0 0.00 0.00 0.00 52 1006.8
20260905111504 51 219 0.0 0.0 0.00 0.00 0.00 51 1006.7
20260905110001 52 217 0.0 2.0 0.00 0.00 0.00 50 1006.6
20260905104600 52 209 0.0 0.0 0.00 0.00 0.00 50 1006.4
20260905103100 53 203 0.0 0.0 0.00 0.00 0.00 49 1006.6
20260905101622 53 185 0.0 1.0 0.00 0.00 0.00 50 1006.7
20260905100056 53 200 0.0 2.0 0.00 0.00 0.00 49 1006.6
20260905094554 53 229 0.0 0.0 0.00 0.00 0.00 49 1006.3
20260905093052 53 190 0.0 0.0 0.00 0.00 0.00 49 1006.2
20260905091549 54 194 0.0 0.0 0.00 0.00 0.00 47 1006.1
20260905090046 55 220 0.0 1.0 0.00 0.00 0.00 46 1006.2
20260905084600 56 205 0.0 0.0 0.00 0.00 0.00 45 1006.2
20260905083042 56 216 0.0 3.0 0.00 0.00 0.00 44 1006.2
20260905081540 57 224 0.0 1.0 0.00 0.00 0.00 44 1006.0
20260905080038 57 225 0.0 1.0 0.00 0.00 0.00 43 1006.0
20260905074536 58 196 0.0 1.0 0.00 0.00 0.00 43 1006.2
20260905073037 59 217 0.0 1.0 0.00 0.00 0.00 41 1006.0
20260905071534 59 232 0.0 6.0 0.00 0.00 0.00 41 1006.1
20260905070032 59 217 0.0 0.0 0.00 0.00 0.00 40 1005.9
20260905064532 59 213 0.0 0.0 0.00 0.00 0.00 39 1005.5
20260905063029 59 212 0.0 0.0 0.00 0.00 0.00 39 1005.6